RASCOM-QAF 1R

Last updated on Sun Apr 12 2026 00:02:52 GMT+0000 (Coordinated Universal Time)

1 36831U 10037B 26101.02212166 .00000020 00000+0 00000+0 0 9992 2 36831 0.0094 206.9464 0006433 168.2519 194.9128 1.00273947 57633
UTC large
Height (km)
Speed (km/s)
/
Latitude / Longitude
Inclination (degrees)
Orbital Period (minutes)
Azimuth
Elevation
Range (km)
Doppler Factor

Next 0 passes for location: London (51.5072 / 0.1276)

Sorry there are no passes over London.
RASCOM-QAF 1R